Location: Dana
(41.8364°N, 106.7042°W)
Time: 20:44:50
(UTC+00:00)

Tiros 1 despin weight - Pass Details

Date: 18 May 2026
Orbit: 555 x 591 km, 48.2° (Epoch: 1 June)

Event Time Altitude Azimuth Distance (km) Brightness Sun altitude
Rises 15:27:13 0° 297° (WNW) 2,743 ? 39.5°
Reaches altitude 10° 15:29:31 10° 301° (WNW) 1,842 ? 40.0°
Maximum altitude 15:33:40 56° 21° (NNE) 661 ? 40.7°
Drops below altitude 10° 15:37:46 10° 100° (E) 1,830 ? 41.5°
Sets 15:40:03 0° 105° (ESE) 2,723 ? 41.9°
